,,,PA_Meas_PMT16A,,PR_Meas_QMR101_102,,RH_Meas_QMH101,,SR_Meas_QMS101,,TA_Meas_QMH101,,GenWind,,GenWind,
date,time,status,PA,status,PR,status,RH,status,SR,status,TA,status,DirAvg,status,SpdAvg,
2011-01-26, 00:00:04,VALID,1010.19,VALID,0,VALID,104,VALID,0.105969,VALID,23.7507,VALID,62,VALID,0,
2011-01-26, 00:01:04,VALID,1010.19,VALID,0,VALID,104,VALID,0,VALID,23.7507,VALID,62,VALID,0,
2011-01-26, 00:02:04,VALID,1010.18,VALID,0,VALID,104,VALID,0,VALID,23.7525,VALID,62,VALID,0,
2011-01-26, 00:03:04,VALID,1010.19,VALID,0,VALID,104,VALID,0,VALID,23.7525,VALID,62,VALID,0,
2011-01-26, 00:04:04,VALID,1010.17,VALID,0,VALID,104,VALID,0,VALID,23.7914,VALID,62,VALID,0,
2011-01-26, 00:05:04,VALID,1010.15,VALID,0,VALID,104,VALID,0,VALID,23.7914,VALID,62,VALID,0,
2011-01-26, 00:06:04,VALID,1010.14,VALID,0,VALID,104,VALID,0,VALID,23.8109,VALID,62,VALID,0,
2011-01-26, 00:07:04,VALID,1010.15,VALID,0,VALID,104,VALID,0,VALID,23.772,VALID,62,VALID,0,
2011-01-26, 00:08:04,VALID,1010.17,VALID,0,VALID,104,VALID,0,VALID,23.772,VALID,62,VALID,0,
2011-01-26, 00:09:04,VALID,1010.19,VALID,0,VALID,104,VALID,0,VALID,23.7914,VALID,62,VALID,0,
2011-01-26, 00:10:04,VALID,1010.19,VALID,0,VALID,104,VALID,0,VALID,23.772,VALID,62,VALID,0,
2011-01-26, 00:11:04,VALID,1010.21,VALID,0,VALID,104,VALID,0,VALID,23.7507,VALID,62,VALID,0,
2011-01-26, 00:12:04,VALID,1010.18,VALID,0,VALID,104,VALID,0,VALID,23.7507,VALID,62,VALID,0,
2011-01-26, 00:13:04,VALID,1010.21,VALID,0,VALID,104,VALID,0,VALID,23.7914,VALID,62,VALID,0,
2011-01-26, 00:14:04,VALID,1010.19,VALID,0,VALID,104,VALID,0,VALID,23.7914,VALID,62,VALID,0,
2011-01-26, 00:15:04,VALID,1010.17,VALID,0,VALID,104,VALID,0,VALID,23.7896,VALID,62,VALID,0,
2011-01-26, 00:16:04,VALID,1010.17,VALID,0,VALID,104,VALID,0,VALID,23.7896,VALID,62,VALID,0,
2011-01-26, 00:17:04,VALID,1010.12,VALID,0,VALID,104,VALID,0,VALID,23.7914,VALID,62,VALID,0,
2011-01-26, 00:18:04,VALID,1010.12,VALID,0,VALID,104,VALID,0,VALID,23.8109,VALID,62,VALID,0,
2011-01-26, 00:19:04,VALID,1010.11,VALID,0,VALID,104,VALID,0,VALID,23.7701,VALID,62,VALID,0,
2011-01-26, 00:20:04,VALID,1010.04,VALID,0,VALID,104,VALID,0,VALID,23.7701,VALID,62,VALID,0,
2011-01-26, 00:21:04,VALID,1010.04,VALID,0,VALID,104,VALID,0,VALID,23.7507,VALID,62,VALID,0,
2011-01-26, 00:22:04,VALID,1010.01,VALID,0,VALID,104,VALID,0,VALID,23.772,VALID,62,VALID,0,
2011-01-26, 00:23:04,VALID,1009.98,VALID,0,VALID,104,VALID,0,VALID,23.7525,VALID,62,VALID,0,
2011-01-26, 00:24:04,VALID,1009.99,VALID,0,VALID,104,VALID,0.105969,VALID,23.7525,VALID,62,VALID,0,
2011-01-26, 00:25:04,VALID,1009.95,VALID,0,VALID,104,VALID,0,VALID,23.733,VALID,62,VALID,0,
2011-01-26, 00:26:04,VALID,1009.95,VALID,0,VALID,104,VALID,0,VALID,23.7135,VALID,62,VALID,0,
2011-01-26, 00:27:04,VALID,1009.93,VALID,0,VALID,104,VALID,0.105969,VALID,23.6922,VALID,62,VALID,0,
2011-01-26, 00:28:04,VALID,1009.92,VALID,0,VALID,104,VALID,0,VALID,23.7135,VALID,62,VALID,0,
2011-01-26, 00:29:04,VALID,1009.89,VALID,0,VALID,104,VALID,0,VALID,23.6922,VALID,62,VALID,0,
2011-01-26, 00:30:04,VALID,1009.87,VALID,0,VALID,104,VALID,0,VALID,23.694,VALID,62,VALID,0,
2011-01-26, 00:31:04,VALID,1009.84,VALID,0,VALID,104,VALID,0,VALID,23.7135,VALID,62,VALID,0,
2011-01-26, 00:32:04,VALID,1009.82,VALID,0,VALID,104,VALID,0,VALID,23.6922,VALID,62,VALID,0,
2011-01-26, 00:33:04,VALID,1009.78,VALID,0,VALID,104,VALID,0,VALID,23.694,VALID,62,VALID,0,
2011-01-26, 00:34:04,VALID,1009.75,VALID,0,VALID,104,VALID,0,VALID,23.6922,VALID,62,VALID,0,
2011-01-26, 00:35:04,VALID,1009.73,VALID,0,VALID,104,VALID,0,VALID,23.6727,VALID,62,VALID,0,
2011-01-26, 00:36:04,VALID,1009.68,VALID,0,VALID,104,VALID,0,VALID,23.694,VALID,62,VALID,0,
2011-01-26, 00:37:04,VALID,1009.67,VALID,0,VALID,104,VALID,0.105969,VALID,23.6532,VALID,62,VALID,0,
2011-01-26, 00:38:04,VALID,1009.66,VALID,0,VALID,104,VALID,0,VALID,23.6532,VALID,62,VALID,0,
2011-01-26, 00:39:04,VALID,1009.66,VALID,0,VALID,104,VALID,0.105969,VALID,23.6745,VALID,62,VALID,0,
2011-01-26, 00:40:04,VALID,1009.65,VALID,0,VALID,104,VALID,0.105969,VALID,23.6727,VALID,62,VALID,0,
2011-01-26, 00:41:04,VALID,1009.63,VALID,0,VALID,104,VALID,0,VALID,23.694,VALID,62,VALID,0,
2011-01-26, 00:42:04,VALID,1009.58,VALID,0,VALID,104,VALID,0,VALID,23.7135,VALID,62,VALID,0,
2011-01-26, 00:43:04,VALID,1009.58,VALID,0,VALID,104,VALID,0,VALID,23.7135,VALID,80,VALID,0,
2011-01-26, 00:44:04,VALID,1009.52,VALID,0,VALID,104,VALID,0.105969,VALID,23.6922,VALID,81,VALID,0,
2011-01-26, 00:45:04,VALID,1009.52,VALID,0,VALID,104,VALID,0,VALID,23.6922,VALID,81,VALID,0,
2011-01-26, 00:46:04,VALID,1009.48,VALID,0,VALID,104,VALID,0,VALID,23.6727,VALID,81,VALID,0,
2011-01-26, 00:47:04,VALID,1009.43,VALID,0,VALID,104,VALID,0,VALID,23.6745,VALID,81,VALID,0,
2011-01-26, 00:48:04,VALID,1009.41,VALID,0,VALID,104,VALID,0,VALID,23.655,VALID,81,VALID,0,
2011-01-26, 00:49:04,VALID,1009.39,VALID,0,VALID,104,VALID,0,VALID,23.6143,VALID,81,VALID,0,
2011-01-26, 00:50:04,VALID,1009.37,VALID,0,VALID,104,VALID,0.105969,VALID,23.6338,VALID,81,VALID,0,
2011-01-26, 00:51:04,VALID,1009.35,VALID,0,VALID,104,VALID,0,VALID,23.6356,VALID,81,VALID,0,
2011-01-26, 00:52:04,VALID,1009.32,VALID,0,VALID,104,VALID,0,VALID,23.6356,VALID,81,VALID,0,
2011-01-26, 00:53:04,VALID,1009.31,VALID,0,VALID,104,VALID,0.105969,VALID,23.655,VALID,82,VALID,0,
2011-01-26, 00:54:05,VALID,1009.31,VALID,0,VALID,104,VALID,0,VALID,23.6356,VALID,78,VALID,0.325781,
2011-01-26, 00:55:05,VALID,1009.28,VALID,0,VALID,104,VALID,0.105969,VALID,23.6338,VALID,71,VALID,0.372266,
2011-01-26, 00:56:05,VALID,1009.26,VALID,0,VALID,104,VALID,0,VALID,23.6143,VALID,54,VALID,0.108984,
2011-01-26, 00:57:05,VALID,1009.23,VALID,0,VALID,104,VALID,0,VALID,23.6143,VALID,54,VALID,0.265234,
2011-01-26, 00:58:05,VALID,1009.23,VALID,0,VALID,104,VALID,0,VALID,23.5948,VALID,54,VALID,0,
2011-01-26, 00:59:05,VALID,1009.22,VALID,0,VALID,104,VALID,0,VALID,23.6161,VALID,54,VALID,0,
2011-01-26, 01:00:05,VALID,1009.2,VALID,0,VALID,104,VALID,0.105969,VALID,23.6356,VALID,54,VALID,0,
2011-01-26, 01:01:05,VALID,1009.21,VALID,0,VALID,104,VALID,0,VALID,23.6356,VALID,54,VALID,0,
2011-01-26, 01:02:05,VALID,1009.19,VALID,0,VALID,104,VALID,0,VALID,23.6143,VALID,54,VALID,0,
2011-01-26, 01:03:05,VALID,1009.16,VALID,0,VALID,104,VALID,0,VALID,23.5948,VALID,54,VALID,0,
2011-01-26, 01:04:05,VALID,1009.17,VALID,0,VALID,104,VALID,0,VALID,23.5948,VALID,54,VALID,0,
2011-01-26, 01:05:05,VALID,1009.15,VALID,0,VALID,104,VALID,0,VALID,23.5948,VALID,54,VALID,0.0359375,
2011-01-26, 01:06:05,VALID,1009.15,VALID,0,VALID,104,VALID,0,VALID,23.6161,VALID,54,VALID,0,
2011-01-26, 01:07:05,VALID,1009.13,VALID,0,VALID,104,VALID,0.105969,VALID,23.5948,VALID,54,VALID,0.151562,
2011-01-26, 01:08:05,VALID,1009.12,VALID,0,VALID,104,VALID,0,VALID,23.5753,VALID,54,VALID,0.182812,
2011-01-26, 01:09:05,VALID,1009.09,VALID,0,VALID,104,VALID,0,VALID,23.5753,VALID,54,VALID,0,
2011-01-26, 01:10:05,VALID,1009.06,VALID,0,VALID,104,VALID,0,VALID,23.5753,VALID,54,VALID,0,
2011-01-26, 01:11:05,VALID,1009.06,VALID,0,VALID,104,VALID,0,VALID,23.5966,VALID,66,VALID,0,
2011-01-26, 01:12:05,VALID,1009.05,VALID,0,VALID,104,VALID,0,VALID,23.5966,VALID,66,VALID,0.332031,
2011-01-26, 01:13:05,VALID,1009.03,VALID,0,VALID,104,VALID,0.105969,VALID,23.5753,VALID,66,VALID,0.420312,
2011-01-26, 01:14:05,VALID,1009,VALID,0,VALID,104,VALID,0,VALID,23.5966,VALID,66,VALID,0.458203,
2011-01-26, 01:15:05,VALID,1008.99,VALID,0,VALID,104,VALID,0,VALID,23.5753,VALID,68,VALID,0.305469,
2011-01-26, 01:16:05,VALID,1008.99,VALID,0,VALID,104,VALID,0,VALID,23.5948,VALID,97,VALID,0.621484,
2011-01-26, 01:17:05,VALID,1008.97,VALID,0,VALID,104,VALID,0.105969,VALID,23.5948,VALID,97,VALID,0.835156,
2011-01-26, 01:18:05,VALID,1008.95,VALID,0,VALID,104,VALID,0,VALID,23.5966,VALID,99,VALID,0.513281,
2011-01-26, 01:19:05,VALID,1008.92,VALID,0,VALID,104,VALID,0,VALID,23.5966,VALID,95,VALID,0.428906,
2011-01-26, 01:20:05,VALID,1008.93,VALID,0,VALID,104,VALID,0.105969,VALID,23.5558,VALID,90,VALID,0.572266,
2011-01-26, 01:21:05,VALID,1008.92,VALID,0,VALID,104,VALID,0,VALID,23.5576,VALID,93,VALID,0.726172,
2011-01-26, 01:22:05,VALID,1008.92,VALID,0,VALID,104,VALID,0,VALID,23.5576,VALID,99,VALID,0.544922,
2011-01-26, 01:23:05,VALID,1008.88,VALID,0,VALID,104,VALID,0,VALID,23.5169,VALID,96,VALID,0.129297,
2011-01-26, 01:24:05,VALID,1008.88,VALID,0,VALID,104,VALID,0,VALID,23.5381,VALID,108,VALID,1.08398,
2011-01-26, 01:25:05,VALID,1008.88,VALID,0,VALID,104,VALID,0,VALID,23.5381,VALID,80,VALID,0.466797,
2011-01-26, 01:26:05,VALID,1008.86,VALID,0,VALID,104,VALID,0.105969,VALID,23.5186,VALID,95,VALID,0.858203,
2011-01-26, 01:27:05,VALID,1008.87,VALID,0,VALID,104,VALID,0,VALID,23.4974,VALID,90,VALID,0.602734,
2011-01-26, 01:28:05,VALID,1008.87,VALID,0,VALID,104,VALID,0.105969,VALID,23.4992,VALID,89,VALID,0,
2011-01-26, 01:29:05,VALID,1008.89,VALID,0,VALID,104,VALID,0,VALID,23.4797,VALID,92,VALID,0.475,
2011-01-26, 01:30:05,VALID,1008.89,VALID,0,VALID,104,VALID,0,VALID,23.4992,VALID,108,VALID,0.720703,
2011-01-26, 01:31:05,VALID,1008.89,VALID,0,VALID,104,VALID,0.105969,VALID,23.4779,VALID,110,VALID,0.601953,
2011-01-26, 01:32:05,VALID,1008.92,VALID,0,VALID,104,VALID,0,VALID,23.4584,VALID,110,VALID,0.497656,
2011-01-26, 01:33:05,VALID,1008.9,VALID,0,VALID,104,VALID,0,VALID,23.4797,VALID,110,VALID,0.595312,
2011-01-26, 01:34:05,VALID,1008.96,VALID,0,VALID,104,VALID,0,VALID,23.4797,VALID,104,VALID,0.904688,
2011-01-26, 01:35:05,VALID,1008.94,VALID,0,VALID,104,VALID,0,VALID,23.4797,VALID,101,VALID,0.992188,
2011-01-26, 01:36:05,VALID,1008.95,VALID,0,VALID,104,VALID,0,VALID,23.4992,VALID,92,VALID,0.653125,
2011-01-26, 01:37:05,VALID,1008.92,VALID,0,VALID,104,VALID,0.105969,VALID,23.5186,VALID,100,VALID,0.653125,
2011-01-26, 01:38:05,VALID,1008.92,VALID,0,VALID,104,VALID,0,VALID,23.4992,VALID,100,VALID,0.2625,
2011-01-26, 01:39:05,VALID,1008.88,VALID,0,VALID,104,VALID,0,VALID,23.4992,VALID,99,VALID,1.10352,
2011-01-26, 01:40:05,VALID,1008.87,VALID,0,VALID,104,VALID,0,VALID,23.4992,VALID,72,VALID,0.540625,
2011-01-26, 01:41:05,VALID,1008.86,VALID,0,VALID,104,VALID,0,VALID,23.4992,VALID,92,VALID,0.5375,
2011-01-26, 01:42:05,VALID,1008.81,VALID,0,VALID,104,VALID,0,VALID,23.4992,VALID,93,VALID,0.590625,
2011-01-26, 01:43:05,VALID,1008.82,VALID,0,VALID,104,VALID,0.105969,VALID,23.4779,VALID,93,VALID,0.549609,
2011-01-26, 01:44:05,VALID,1008.78,VALID,0,VALID,104,VALID,0,VALID,23.4992,VALID,103,VALID,0.4125,
2011-01-26, 01:45:05,VALID,1008.77,VALID,0,VALID,104,VALID,0,VALID,23.4584,VALID,103,VALID,0.471094,
2011-01-26, 01:46:05,VALID,1008.71,VALID,0,VALID,104,VALID,0,VALID,23.4584,VALID,103,VALID,0,
2011-01-26, 01:47:05,VALID,1008.7,VALID,0,VALID,104,VALID,0,VALID,23.4797,VALID,103,VALID,0,
2011-01-26, 01:48:05,VALID,1008.64,VALID,0,VALID,104,VALID,0,VALID,23.4797,VALID,103,VALID,0,
2011-01-26, 01:49:05,VALID,1008.63,VALID,0,VALID,104,VALID,0,VALID,23.4584,VALID,103,VALID,0,
2011-01-26, 01:50:05,VALID,1008.61,VALID,0,VALID,104,VALID,0,VALID,23.4602,VALID,103,VALID,0,
2011-01-26, 01:51:05,VALID,1008.61,VALID,0,VALID,104,VALID,0,VALID,23.4389,VALID,103,VALID,0.184766,
2011-01-26, 01:52:05,VALID,1008.6,VALID,0,VALID,104,VALID,0,VALID,23.4602,VALID,93,VALID,0.442969,
2011-01-26, 01:53:05,VALID,1008.58,VALID,0,VALID,104,VALID,0,VALID,23.4389,VALID,93,VALID,0.303906,
2011-01-26, 01:54:05,VALID,1008.59,VALID,0,VALID,104,VALID,0,VALID,23.4602,VALID,93,VALID,0.308594,
2011-01-26, 01:55:05,VALID,1008.56,VALID,0,VALID,104,VALID,0,VALID,23.4602,VALID,93,VALID,0.385547,
2011-01-26, 01:56:05,VALID,1008.56,VALID,0,VALID,104,VALID,0,VALID,23.4602,VALID,103,VALID,0.363672,
2011-01-26, 01:57:05,VALID,1008.54,VALID,0,VALID,104,VALID,0,VALID,23.4407,VALID,105,VALID,0.463672,
2011-01-26, 01:58:05,VALID,1008.54,VALID,0,VALID,104,VALID,0,VALID,23.4407,VALID,105,VALID,0.462891,
2011-01-26, 01:59:05,VALID,1008.56,VALID,0,VALID,104,VALID,0,VALID,23.4407,VALID,105,VALID,0,
2011-01-26, 02:00:05,VALID,1008.56,VALID,0,VALID,104,VALID,0,VALID,23.4194,VALID,105,VALID,0,
2011-01-26, 02:01:05,VALID,1008.58,VALID,0,VALID,104,VALID,0,VALID,23.4407,VALID,105,VALID,0,
2011-01-26, 02:02:05,VALID,1008.58,VALID,0,VALID,104,VALID,0,VALID,23.4407,VALID,104,VALID,0.741406,
2011-01-26, 02:03:05,VALID,1008.61,VALID,0,VALID,104,VALID,0,VALID,23.4212,VALID,105,VALID,0.00195313,
2011-01-26, 02:04:05,VALID,1008.61,VALID,0,VALID,104,VALID,0,VALID,23.4212,VALID,105,VALID,0.277344,
2011-01-26, 02:05:05,VALID,1008.65,VALID,0,VALID,104,VALID,0,VALID,23.3823,VALID,109,VALID,0.563672,
2011-01-26, 02:06:05,VALID,1008.67,VALID,0,VALID,104,VALID,0,VALID,23.3628,VALID,164,VALID,0.841016,
2011-01-26, 02:07:05,VALID,1008.7,VALID,0,VALID,104,VALID,0,VALID,23.3433,VALID,164,VALID,0.685547,
2011-01-26, 02:08:05,VALID,1008.69,VALID,0,VALID,104,VALID,0,VALID,23.3238,VALID,164,VALID,1.04453,
2011-01-26, 02:09:05,VALID,1008.68,VALID,0,VALID,104,VALID,0,VALID,23.3043,VALID,164,VALID,0.810156,
2011-01-26, 02:10:05,VALID,1008.69,VALID,0,VALID,104,VALID,0,VALID,23.2848,VALID,164,VALID,0.564453,
2011-01-26, 02:11:05,VALID,1008.65,VALID,0,VALID,104,VALID,0,VALID,23.2441,VALID,164,VALID,0.755469,
2011-01-26, 02:12:05,VALID,1008.64,VALID,0,VALID,104,VALID,0,VALID,23.2459,VALID,164,VALID,0.694922,
2011-01-26, 02:13:05,VALID,1008.63,VALID,0,VALID,104,VALID,0,VALID,23.2441,VALID,164,VALID,0.606641,
2011-01-26, 02:14:05,VALID,1008.62,VALID,0,VALID,104,VALID,0,VALID,23.2459,VALID,164,VALID,0.637109,
2011-01-26, 02:15:05,VALID,1008.62,VALID,0,VALID,104,VALID,0,VALID,23.2051,VALID,164,VALID,0.807422,
2011-01-26, 02:16:05,VALID,1008.66,VALID,0,VALID,104,VALID,0,VALID,23.2264,VALID,161,VALID,0.66875,
2011-01-26, 02:17:05,VALID,1008.67,VALID,0,VALID,104,VALID,0,VALID,23.2069,VALID,161,VALID,0.391406,
2011-01-26, 02:18:05,VALID,1008.65,VALID,0,VALID,104,VALID,0,VALID,23.2051,VALID,163,VALID,0.323828,
2011-01-26, 02:19:05,VALID,1008.66,VALID,0,VALID,104,VALID,0,VALID,23.2459,VALID,142,VALID,0.752344,
2011-01-26, 02:20:05,VALID,1008.64,VALID,0,VALID,104,VALID,0,VALID,23.2459,VALID,143,VALID,0.664063,
2011-01-26, 02:21:05,VALID,1008.65,VALID,0,VALID,104,VALID,0,VALID,23.2459,VALID,144,VALID,0.533984,
2011-01-26, 02:22:05,VALID,1008.64,VALID,0,VALID,104,VALID,0,VALID,23.2459,VALID,144,VALID,0.654297,
2011-01-26, 02:23:05,VALID,1008.64,VALID,0,VALID,104,VALID,0,VALID,23.2459,VALID,134,VALID,0.601563,
2011-01-26, 02:24:05,VALID,1008.66,VALID,0,VALID,104,VALID,0,VALID,23.2441,VALID,124,VALID,0.844922,
2011-01-26, 02:25:05,VALID,1008.68,VALID,0,VALID,104,VALID,0,VALID,23.2848,VALID,119,VALID,0.8125,
2011-01-26, 02:26:05,VALID,1008.66,VALID,0,VALID,104,VALID,0,VALID,23.2636,VALID,125,VALID,0.655859,
2011-01-26, 02:27:05,VALID,1008.71,VALID,0,VALID,104,VALID,0,VALID,23.2636,VALID,133,VALID,0.966016,
2011-01-26, 02:28:05,VALID,1008.69,VALID,0,VALID,104,VALID,0,VALID,23.2848,VALID,123,VALID,0.7625,
2011-01-26, 02:29:05,VALID,1008.71,VALID,0,VALID,104,VALID,0,VALID,23.3043,VALID,125,VALID,0.530078,
2011-01-26, 02:30:05,VALID,1008.73,VALID,0,VALID,104,VALID,0,VALID,23.2636,VALID,127,VALID,0.851953,
2011-01-26, 02:31:05,VALID,1008.74,VALID,0,VALID,104,VALID,0,VALID,23.2848,VALID,127,VALID,0.974219,
2011-01-26, 02:32:05,VALID,1008.74,VALID,0,VALID,104,VALID,0,VALID,23.3043,VALID,126,VALID,0.6125,
2011-01-26, 02:33:05,VALID,1008.74,VALID,0,VALID,104,VALID,0,VALID,23.3043,VALID,108,VALID,0.850391,
2011-01-26, 02:34:05,VALID,1008.73,VALID,0,VALID,104,VALID,0,VALID,23.3043,VALID,122,VALID,0.835938,
2011-01-26, 02:35:05,VALID,1008.71,VALID,0,VALID,104,VALID,0,VALID,23.3043,VALID,107,VALID,1.28437,
2011-01-26, 02:36:05,VALID,1008.72,VALID,0,VALID,104,VALID,0,VALID,23.3043,VALID,107,VALID,0.91875,
2011-01-26, 02:37:05,VALID,1008.72,VALID,0,VALID,104,VALID,0,VALID,23.3043,VALID,98,VALID,1.07969,
2011-01-26, 02:38:05,VALID,1008.69,VALID,0,VALID,104,VALID,0,VALID,23.3043,VALID,104,VALID,1.23203,
2011-01-26, 02:39:05,VALID,1008.67,VALID,0,VALID,104,VALID,0,VALID,23.2848,VALID,115,VALID,1.46055,
2011-01-26, 02:40:05,VALID,1008.61,VALID,0,VALID,104,VALID,0,VALID,23.2831,VALID,103,VALID,0.725,
2011-01-26, 02:41:05,VALID,1008.61,VALID,0,VALID,104,VALID,0,VALID,23.2831,VALID,112,VALID,1.30742,
2011-01-26, 02:42:05,VALID,1008.62,VALID,0,VALID,104,VALID,0,VALID,23.2831,VALID,103,VALID,0.90625,
2011-01-26, 02:43:05,VALID,1008.61,VALID,0,VALID,104,VALID,0,VALID,23.3043,VALID,105,VALID,0.927734,
2011-01-26, 02:44:05,VALID,1008.61,VALID,0,VALID,104,VALID,0,VALID,23.2848,VALID,114,VALID,0.611328,
2011-01-26, 02:45:05,VALID,1008.61,VALID,0,VALID,104,VALID,0,VALID,23.3043,VALID,116,VALID,0.519531,
2011-01-26, 02:46:05,VALID,1008.64,VALID,0,VALID,104,VALID,0,VALID,23.3043,VALID,130,VALID,0.737891,
2011-01-26, 02:47:05,VALID,1008.65,VALID,0,VALID,104,VALID,0.105969,VALID,23.3026,VALID,95,VALID,0.785937,
2011-01-26, 02:48:05,VALID,1008.65,VALID,0,VALID,104,VALID,0,VALID,23.3026,VALID,114,VALID,0.360938,
2011-01-26, 02:49:05,VALID,1008.67,VALID,0,VALID,104,VALID,0,VALID,23.3026,VALID,114,VALID,0.889063,
2011-01-26, 02:50:05,VALID,1008.66,VALID,0,VALID,104,VALID,0,VALID,23.3238,VALID,108,VALID,0.461719,
2011-01-26, 02:51:05,VALID,1008.68,VALID,0,VALID,104,VALID,0,VALID,23.3238,VALID,108,VALID,0.572266,
2011-01-26, 02:52:05,VALID,1008.68,VALID,0,VALID,104,VALID,0,VALID,23.3238,VALID,105,VALID,0.701953,
2011-01-26, 02:53:05,VALID,1008.68,VALID,0,VALID,104,VALID,0,VALID,23.322,VALID,105,VALID,0.662109,
2011-01-26, 02:54:05,VALID,1008.7,VALID,0,VALID,104,VALID,0,VALID,23.322,VALID,105,VALID,0.0636719,
2011-01-26, 02:55:05,VALID,1008.69,VALID,0,VALID,104,VALID,0,VALID,23.3238,VALID,105,VALID,0,
2011-01-26, 02:56:05,VALID,1008.74,VALID,0,VALID,104,VALID,0,VALID,23.3238,VALID,105,VALID,0,
2011-01-26, 02:57:05,VALID,1008.75,VALID,0,VALID,104,VALID,0,VALID,23.2831,VALID,105,VALID,0,
2011-01-26, 02:58:05,VALID,1008.76,VALID,0,VALID,104,VALID,0,VALID,23.2831,VALID,105,VALID,0.100781,
2011-01-26, 02:59:05,VALID,1008.8,VALID,0,VALID,104,VALID,0,VALID,23.3043,VALID,105,VALID,0,
2011-01-26, 03:00:05,VALID,1008.79,VALID,0,VALID,104,VALID,0,VALID,23.3043,VALID,105,VALID,0,
2011-01-26, 03:01:05,VALID,1008.82,VALID,0,VALID,104,VALID,0,VALID,23.3043,VALID,105,VALID,0.00585938,
2011-01-26, 03:02:05,VALID,1008.8,VALID,0,VALID,104,VALID,0,VALID,23.2848,VALID,105,VALID,0.00429688,
2011-01-26, 03:03:05,VALID,1008.83,VALID,0,VALID,104,VALID,0,VALID,23.2636,VALID,105,VALID,0,
2011-01-26, 03:04:05,VALID,1008.81,VALID,0,VALID,104,VALID,0,VALID,23.2654,VALID,105,VALID,0,
2011-01-26, 03:05:05,VALID,1008.8,VALID,0,VALID,104,VALID,0,VALID,23.2848,VALID,105,VALID,0,
2011-01-26, 03:06:05,VALID,1008.8,VALID,0,VALID,104,VALID,0,VALID,23.2654,VALID,105,VALID,0,
2011-01-26, 03:07:05,VALID,1008.8,VALID,0,VALID,104,VALID,0,VALID,23.2654,VALID,105,VALID,0,
2011-01-26, 03:08:05,VALID,1008.78,VALID,0,VALID,104,VALID,0,VALID,23.2459,VALID,105,VALID,0,
2011-01-26, 03:09:05,VALID,1008.79,VALID,0,VALID,104,VALID,0,VALID,23.2459,VALID,105,VALID,0,
2011-01-26, 03:10:05,VALID,1008.8,VALID,0,VALID,104,VALID,0,VALID,23.2264,VALID,105,VALID,0,
2011-01-26, 03:11:05,VALID,1008.8,VALID,0,VALID,104,VALID,0,VALID,23.2264,VALID,105,VALID,0,
2011-01-26, 03:12:05,VALID,1008.81,VALID,0,VALID,104,VALID,0.105969,VALID,23.2051,VALID,105,VALID,0,
2011-01-26, 03:13:05,VALID,1008.8,VALID,0,VALID,104,VALID,0,VALID,23.2051,VALID,105,VALID,0,
2011-01-26, 03:14:05,VALID,1008.79,VALID,0,VALID,104,VALID,0.105969,VALID,23.2051,VALID,105,VALID,0,
2011-01-26, 03:15:05,VALID,1008.78,VALID,0,VALID,104,VALID,0,VALID,23.2051,VALID,105,VALID,0.51875,
2011-01-26, 03:16:05,VALID,1008.8,VALID,0,VALID,104,VALID,0,VALID,23.2459,VALID,105,VALID,0,
2011-01-26, 03:17:05,VALID,1008.82,VALID,0,VALID,104,VALID,0,VALID,23.2264,VALID,105,VALID,0,
2011-01-26, 03:18:05,VALID,1008.8,VALID,0,VALID,104,VALID,0,VALID,23.1857,VALID,105,VALID,0,
2011-01-26, 03:19:05,VALID,1008.79,VALID,0,VALID,104,VALID,0,VALID,23.2069,VALID,105,VALID,0,
2011-01-26, 03:20:05,VALID,1008.83,VALID,0,VALID,104,VALID,0,VALID,23.1874,VALID,82,VALID,0,
2011-01-26, 03:21:05,VALID,1008.83,VALID,0,VALID,104,VALID,0,VALID,23.2069,VALID,82,VALID,0,
2011-01-26, 03:22:05,VALID,1008.81,VALID,0,VALID,104,VALID,0,VALID,23.2069,VALID,82,VALID,0,
2011-01-26, 03:23:05,VALID,1008.83,VALID,0,VALID,104,VALID,0,VALID,23.1857,VALID,82,VALID,0,
2011-01-26, 03:24:05,VALID,1008.81,VALID,0,VALID,104,VALID,0,VALID,23.1662,VALID,82,VALID,0,
2011-01-26, 03:25:05,VALID,1008.79,VALID,0,VALID,104,VALID,0,VALID,23.1874,VALID,82,VALID,0,
2011-01-26, 03:26:05,VALID,1008.82,VALID,0,VALID,104,VALID,0,VALID,23.1679,VALID,82,VALID,0,
2011-01-26, 03:27:05,VALID,1008.83,VALID,0,VALID,104,VALID,0,VALID,23.1874,VALID,82,VALID,0,
2011-01-26, 03:28:05,VALID,1008.82,VALID,0,VALID,104,VALID,0,VALID,23.1679,VALID,83,VALID,0,
2011-01-26, 03:29:05,VALID,1008.81,VALID,0,VALID,104,VALID,0.105969,VALID,23.1874,VALID,83,VALID,0,
2011-01-26, 03:30:05,VALID,1008.82,VALID,0,VALID,104,VALID,0,VALID,23.1874,VALID,83,VALID,0,
2011-01-26, 03:31:05,VALID,1008.82,VALID,0,VALID,104,VALID,0,VALID,23.1662,VALID,83,VALID,0,
2011-01-26, 03:32:05,VALID,1008.83,VALID,0,VALID,104,VALID,0.105969,VALID,23.2069,VALID,103,VALID,0.377344,
2011-01-26, 03:33:05,VALID,1008.8,VALID,0,VALID,104,VALID,0,VALID,23.2459,VALID,114,VALID,0.607813,
2011-01-26, 03:34:05,VALID,1008.76,VALID,0,VALID,104,VALID,0.105969,VALID,23.2441,VALID,114,VALID,0.155469,
2011-01-26, 03:35:05,VALID,1008.75,VALID,0,VALID,104,VALID,0.105969,VALID,23.2654,VALID,114,VALID,0.121484,
2011-01-26, 03:36:05,VALID,1008.74,VALID,0,VALID,104,VALID,0.105969,VALID,23.2654,VALID,114,VALID,0.576953,
2011-01-26, 03:37:05,VALID,1008.74,VALID,0,VALID,104,VALID,0,VALID,23.2459,VALID,114,VALID,0.353516,
2011-01-26, 03:38:04,VALID,1008.74,VALID,0,VALID,104,VALID,0,VALID,23.2441,VALID,114,VALID,0.0121094,
2011-01-26, 03:39:04,VALID,1008.7,VALID,0,VALID,104,VALID,0,VALID,23.2246,VALID,114,VALID,0,
2011-01-26, 03:40:04,VALID,1008.69,VALID,0,VALID,104,VALID,0,VALID,23.2459,VALID,114,VALID,0,
2011-01-26, 03:41:04,VALID,1008.66,VALID,0,VALID,104,VALID,0,VALID,23.2051,VALID,114,VALID,0,
2011-01-26, 03:42:04,VALID,1008.62,VALID,0,VALID,104,VALID,0.105969,VALID,23.2264,VALID,114,VALID,0,
2011-01-26, 03:43:04,VALID,1008.6,VALID,0,VALID,104,VALID,0,VALID,23.2264,VALID,114,VALID,0,
2011-01-26, 03:44:04,VALID,1008.6,VALID,0,VALID,104,VALID,0,VALID,23.1857,VALID,114,VALID,0,
2011-01-26, 03:45:04,VALID,1008.63,VALID,0,VALID,104,VALID,0,VALID,23.2069,VALID,114,VALID,0,
2011-01-26, 03:46:04,VALID,1008.6,VALID,0,VALID,104,VALID,0,VALID,23.1857,VALID,114,VALID,0,
2011-01-26, 03:47:04,VALID,1008.58,VALID,0,VALID,104,VALID,0,VALID,23.1857,VALID,114,VALID,0,
2011-01-26, 03:48:04,VALID,1008.59,VALID,0,VALID,104,VALID,0,VALID,23.2069,VALID,114,VALID,0,
2011-01-26, 03:49:04,VALID,1008.61,VALID,0,VALID,104,VALID,0,VALID,23.2264,VALID,114,VALID,0,
2011-01-26, 03:50:04,VALID,1008.64,VALID,0,VALID,104,VALID,0,VALID,23.2264,VALID,114,VALID,0,
2011-01-26, 03:51:04,VALID,1008.64,VALID,0,VALID,104,VALID,0,VALID,23.2264,VALID,114,VALID,0,
2011-01-26, 03:52:04,VALID,1008.66,VALID,0,VALID,104,VALID,0,VALID,23.2264,VALID,114,VALID,0,
2011-01-26, 03:53:04,VALID,1008.68,VALID,0,VALID,104,VALID,0,VALID,23.2264,VALID,114,VALID,0,
2011-01-26, 03:54:04,VALID,1008.7,VALID,0,VALID,104,VALID,0,VALID,23.2069,VALID,114,VALID,0.335547,
2011-01-26, 03:55:04,VALID,1008.71,VALID,0,VALID,104,VALID,0,VALID,23.2069,VALID,114,VALID,0.309375,
2011-01-26, 03:56:04,VALID,1008.73,VALID,0,VALID,104,VALID,0,VALID,23.2069,VALID,114,VALID,0.195313,
2011-01-26, 03:57:04,VALID,1008.75,VALID,0,VALID,104,VALID,0,VALID,23.2051,VALID,114,VALID,0,
2011-01-26, 03:58:04,VALID,1008.76,VALID,0,VALID,104,VALID,0,VALID,23.2069,VALID,114,VALID,0,
2011-01-26, 03:59:04,VALID,1008.75,VALID,0,VALID,104,VALID,0,VALID,23.2069,VALID,114,VALID,0,
2011-01-26, 04:00:04,VALID,1008.77,VALID,0,VALID,104,VALID,0,VALID,23.2069,VALID,114,VALID,0,